TimeMST,TemperatureF,Dew PointF,Humidity,Sea Level PressureIn,VisibilityMPH,Wind Direction,Wind SpeedMPH,Gust SpeedMPH,PrecipitationIn,Events,Conditions,WindDirDegrees,DateUTC
12:03 AM,7.0,3.9,87,29.92,5.0,SSW,4.6,-,0.00,Snow,Light Snow,200,2013-12-06 07:03:00
12:53 AM,7.0,3.0,84,30.14,6.0,Calm,Calm,-,0.00,,Overcast,0,2013-12-06 07:53:00
1:53 AM,7.0,3.0,84,30.15,7.0,Calm,Calm,-,0.00,,Overcast,0,2013-12-06 08:53:00
2:53 AM,7.0,3.0,84,30.16,10.0,Calm,Calm,-,0.00,,Overcast,0,2013-12-06 09:53:00
3:53 AM,6.1,3.0,87,30.17,8.0,South,8.1,-,0.00,,Overcast,190,2013-12-06 10:53:00
4:53 AM,6.1,3.0,87,30.19,8.0,South,6.9,-,N/A,,Overcast,190,2013-12-06 11:53:00
5:53 AM,7.0,3.0,84,30.19,5.0,SSW,3.5,-,0.00,Snow,Light Snow,200,2013-12-06 12:53:00
6:05 AM,7.0,3.0,84,29.97,5.0,South,8.1,-,0.00,Snow,Light Snow,180,2013-12-06 13:05:00
6:41 AM,6.1,3.0,87,29.99,5.0,SSW,8.1,-,0.00,Snow,Light Snow,200,2013-12-06 13:41:00
6:53 AM,6.1,3.0,87,30.24,7.0,South,6.9,-,0.00,,Overcast,190,2013-12-06 13:53:00
7:30 AM,6.1,3.0,87,30.01,5.0,South,9.2,-,0.00,Snow,Light Snow,180,2013-12-06 14:30:00
7:53 AM,7.0,3.0,84,30.27,3.0,South,8.1,-,0.00,Snow,Light Snow,190,2013-12-06 14:53:00
8:05 AM,7.0,3.0,84,30.03,2.5,SSW,8.1,-,0.00,Snow,Light Snow,200,2013-12-06 15:05:00
8:23 AM,7.0,3.9,87,30.03,1.0,SSW,5.8,-,0.00,Snow,Light Snow,200,2013-12-06 15:23:00
8:31 AM,7.0,3.0,84,30.03,3.0,South,5.8,-,0.00,Snow,Light Snow,170,2013-12-06 15:31:00
8:51 AM,6.8,3.2,85,30.04,4.0,South,3.5,-,0.00,Snow,Light Snow,190,2013-12-06 15:51:00
8:53 AM,7.0,3.0,84,30.28,4.0,Variable,3.5,-,0.00,Snow,Light Snow,0,2013-12-06 15:53:00
9:10 AM,8.1,3.0,80,30.04,4.0,SSW,8.1,-,0.00,Snow,Light Snow,210,2013-12-06 16:10:00
9:53 AM,8.1,3.0,80,30.29,7.0,WSW,9.2,-,0.00,,Overcast,240,2013-12-06 16:53:00
10:53 AM,10.0,5.0,80,30.28,6.0,South,6.9,-,0.00,Snow,Light Snow,190,2013-12-06 17:53:00
11:53 AM,10.9,3.9,73,30.26,5.0,Variable,4.6,-,0.00,Snow,Light Snow,0,2013-12-06 18:53:00
12:53 PM,12.0,6.1,77,30.24,9.0,SSW,8.1,-,0.00,,Overcast,210,2013-12-06 19:53:00
1:44 PM,12.9,7.0,77,30.02,5.0,SSW,9.2,-,0.00,Snow,Light Snow,200,2013-12-06 20:44:00
1:53 PM,12.0,6.1,77,30.25,6.0,South,6.9,-,0.00,Snow,Light Snow,190,2013-12-06 20:53:00
2:14 PM,12.0,6.1,77,30.02,3.0,South,11.5,-,0.00,Snow,Light Snow,170,2013-12-06 21:14:00
2:31 PM,12.0,6.1,77,30.02,5.0,South,9.2,-,0.00,Snow,Light Snow,180,2013-12-06 21:31:00
2:45 PM,12.0,6.1,77,30.02,5.0,South,5.8,-,0.00,Snow,Light Snow,190,2013-12-06 21:45:00
2:53 PM,12.0,6.1,77,30.24,4.0,South,6.9,-,0.00,Snow,Light Snow,180,2013-12-06 21:53:00
3:29 PM,12.0,6.1,77,30.03,2.5,South,9.2,-,0.00,Snow,Light Snow,190,2013-12-06 22:29:00
3:36 PM,12.0,6.1,77,30.03,3.0,SW,9.2,-,0.00,Snow,Light Snow,230,2013-12-06 22:36:00
3:53 PM,12.0,6.1,77,30.27,3.0,SW,8.1,-,0.00,Snow,Light Snow,230,2013-12-06 22:53:00
4:24 PM,12.0,7.0,80,30.05,2.5,SSW,8.1,-,0.00,Snow,Light Snow,200,2013-12-06 23:24:00
4:53 PM,12.0,8.1,84,30.29,2.5,SSW,9.2,-,0.00,Snow,Light Snow,200,2013-12-06 23:53:00
5:00 PM,12.0,7.0,80,30.06,4.0,SSW,8.1,-,0.00,Snow,Light Snow,210,2013-12-07 00:00:00
5:34 PM,10.9,8.1,88,30.07,2.5,South,9.2,-,0.00,Snow,Light Snow,190,2013-12-07 00:34:00
5:42 PM,10.9,8.1,88,30.08,3.0,SSW,10.4,-,0.00,Snow,Light Snow,200,2013-12-07 00:42:00
5:53 PM,10.9,7.0,84,30.32,3.0,South,10.4,-,0.00,Snow,Light Snow,180,2013-12-07 00:53:00
6:53 PM,10.9,8.1,88,30.33,4.0,South,10.4,-,0.00,Snow,Light Snow,180,2013-12-07 01:53:00